Doylestown, PA

4:03 AM EDT on August 20, 2017 (GMT -0400)
Doylestown

Weather History for KDYL - May, 2013

Change the Weather History Date:

Sunday, May 12, 2013

  Actual Average (KTTN) Record (KTTN)
Temperature  
Mean Temperature 54 °F -  
Max Temperature 63 °F 68 °F 93 °F (1911)
Min Temperature 45 °F 47 °F 33 °F (1907)
Degree Days  
Heating Degree Days 10    
Growing Degree Days 4 (Base 50)    
Moisture  
Dew Point 39 °F    
Average Humidity 55    
Maximum Humidity 87    
Minimum Humidity 29    
Precipitation  
Precipitation 0.00 in - - ()
Sea Level Pressure  
Sea Level Pressure 29.79 in    
Wind  
Wind Speed 7 mph (WNW)    
Max Wind Speed 17 mph    
Max Gust Speed 28 mph    
Visibility 10 miles    
Events      
Averages and records for this station are not official NWS values.
T = Trace of Precipitation, MM = Missing Value Source: NWS Daily Summary

Daily Weather History Graph

Daily Weather History Graph

Search for Another Location

Airport or City:

Trip Planner

Search our weather history database for the weather conditions in past years. The results will help you decide how hot, cold, wet, or windy it might be!

Date:

Astronomy

May. 12, 2013 Rise Set
Actual Time 5:47 AM EDT 8:07 PM EDT
Civil Twilight 5:16 AM EDT 8:37 PM EDT
Nautical Twilight 4:38 AM EDT 9:15 PM EDT
Astronomical Twilight 3:57 AM EDT 9:57 PM EDT
Moon 7:40 AM EDT (5/12) 10:32 PM EDT (5/12)
Length of Visible Light 15h 21m
Length of Day
14h 20m
Waxing Crescent, 6% of the Moon is Illuminated
May 12
Waxing Crescent
May 18
First Quarter
May 25
Full
May 31
Last Quarter
Jun 8
New

Hourly Weather History & Observations

Time (EDT) Temp. Windchill Dew Point Humidity Pressure Visibility Wind Dir Wind Speed Gust Speed Precip Events Conditions
12:54 AM 60.1 °F - 53.1 °F 78% 29.72 in 10.0 mi WNW 5.8 mph - N/A   Overcast
1:54 AM 59.0 °F - 53.1 °F 81% 29.70 in 10.0 mi Calm Calm - N/A   Overcast
2:54 AM 57.9 °F - 52.0 °F 81% 29.71 in 10.0 mi West 4.6 mph - N/A   Overcast
3:54 AM 57.0 °F - 53.1 °F 87% 29.72 in 10.0 mi Calm Calm - 0.00 in   Overcast
4:54 AM 55.9 °F - 51.1 °F 84% 29.71 in 10.0 mi Variable 5.8 mph - N/A   Partly Cloudy
5:54 AM 55.0 °F - 50.0 °F 83% 29.73 in 10.0 mi West 6.9 mph - 0.00 in   Mostly Cloudy
6:54 AM 53.1 °F - 46.9 °F 80% 29.75 in 10.0 mi WNW 3.5 mph - N/A   Partly Cloudy
7:54 AM 55.9 °F - 46.9 °F 72% 29.74 in 10.0 mi WNW 6.9 mph - N/A   Clear
8:54 AM 59.0 °F - 48.0 °F 67% 29.74 in 10.0 mi NW 11.5 mph 21.9 mph N/A   Clear
9:54 AM 61.0 °F - 48.0 °F 62% 29.74 in 10.0 mi West 10.4 mph 17.3 mph N/A   Partly Cloudy
10:54 AM 63.0 °F - 42.1 °F 46% 29.74 in 10.0 mi West 15.0 mph 25.3 mph N/A   Scattered Clouds
11:54 AM 63.0 °F - 35.1 °F 35% 29.75 in 10.0 mi WSW 11.5 mph 24.2 mph N/A   Clear
12:54 PM 62.1 °F - 32.0 °F 32% 29.76 in 10.0 mi West 13.8 mph 25.3 mph N/A   Clear
2:54 PM 61.0 °F - 28.9 °F 30% 29.78 in 10.0 mi WNW 13.8 mph 27.6 mph N/A   Clear
3:54 PM 60.1 °F - 30.0 °F 32% 29.79 in 10.0 mi WNW 17.3 mph 27.6 mph N/A   Clear
4:54 PM 59.0 °F - 28.9 °F 32% 29.81 in 10.0 mi West 13.8 mph 25.3 mph N/A   Clear
5:54 PM 55.9 °F - 27.0 °F 33% 29.83 in 10.0 mi WNW 17.3 mph 26.5 mph N/A   Clear
6:54 PM 57.0 °F - 25.0 °F 29% 29.84 in 10.0 mi West 12.7 mph 21.9 mph N/A   Scattered Clouds
7:54 PM 54.0 °F - 23.0 °F 30% 29.87 in 10.0 mi West 9.2 mph 21.9 mph N/A   Partly Cloudy
8:54 PM 52.0 °F - 26.1 °F 37% 29.89 in 10.0 mi WNW 8.1 mph - N/A   Partly Cloudy
9:54 PM 50.0 °F - 28.0 °F 43% 29.94 in 10.0 mi NW 6.9 mph - N/A   Clear
10:54 PM 46.9 °F - 30.0 °F 52% 29.96 in 10.0 mi Calm Calm - N/A   Clear
11:54 PM 45.0 °F 43.5 °F 32.0 °F 60% 29.98 in 10.0 mi WNW 3.5 mph - N/A   Clear